Theta_e
294 289 288 287 290 292 292 293 293 292 290 289 288 288 287 287 287 289 290 291 291 291 289 290 290 291 292 292 293 291 290 291 292 292 292 292 292 292 292 293 293 293 293 292 294 294 295 296 297 300 302 303 305 306 305 305 304 304 304 304 303 303 303 302 301 300 299 297 296 296 294 293 292 292 292 291 291 293 294 294 295 294 293 293 292 292
294 289 289 292 293 293 293 293 292 292 292 292 290 287 287 286 287 289 293 293 291 291 286 287 288 289 291 292 293 292 289 291 292 292 292 293 293 293 293 293 293 292 291 292 293 294 294 295 296 299 301 303 304 304 304 304 304 305 304 303 302 302 302 302 302 301 301 300 298 295 293 292 291 290 290 289 289 290 292 291 290 290 290 290 290 290
289 288 292 294 294 292 293 291 291 291 291 290 289 287 286 287 287 291 290 291 291 291 289 288 288 290 292 293 294 293 292 293 294 294 295 294 293 293 293 293 292 291 291 292 293 293 294 295 296 298 301 304 305 304 304 305 304 304 304 304 303 303 302 302 301 300 298 296 295 294 292 291 288 288 288 288 288 289 288 288 288 289 289 289 288 288
286 288 294 295 293 294 292 292 290 291 290 288 287 287 287 285 288 286 287 288 292 291 286 286 287 290 292 292 293 295 294 294 294 294 295 295 295 294 294 294 293 292 291 292 293 293 293 295 297 298 301 303 304 304 304 305 304 304 304 304 303 302 301 300 299 297 295 293 292 291 291 290 288 287 288 287 287 288 287 287 287 287 287 287 287 287
290 293 295 295 294 293 292 291 290 288 288 286 289 287 287 287 287 289 288 290 288 289 289 289 288 290 292 293 294 295 292 294 296 293 292 293 294 295 294 294 294 293 292 292 292 292 292 294 297 299 301 303 303 302 303 304 303 303 302 302 301 300 298 297 296 294 293 291 289 289 289 289 287 287 287 286 286 286 287 286 286 285 285 286 286 286
290 294 293 293 291 292 292 290 290 290 286 287 287 291 291 289 289 287 288 290 283 284 285 289 282 280 283 288 291 293 289 292 292 293 294 294 293 292 293 294 293 292 293 293 293 293 293 294 296 299 299 301 302 302 303 303 302 302 300 299 299 298 296 295 294 292 292 290 288 288 287 286 286 285 285 285 285 285 284 284 284 285 284 285 285 285
292 294 295 292 291 290 290 290 289 292 289 285 287 289 291 290 289 288 288 287 281 281 288 288 283 282 284 290 289 289 288 292 293 291 294 294 294 292 293 294 292 292 291 292 292 293 293 293 295 297 298 301 302 302 303 301 299 299 299 298 297 296 295 294 293 293 292 291 290 290 289 288 287 285 283 283 284 284 284 284 284 283 284 284 284 284
292 293 294 293 291 290 288 288 290 292 290 284 286 288 289 289 288 287 287 288 283 282 286 287 284 283 285 288 292 294 294 295 294 296 297 297 294 292 292 293 292 292 292 292 292 293 294 294 296 297 297 300 302 302 301 300 299 298 297 297 296 295 295 294 294 293 293 292 291 288 287 287 285 285 283 283 284 284 284 283 283 283 283 283 284 284
293 290 291 291 290 290 289 291 290 293 290 286 289 289 288 290 287 287 287 284 284 285 282 282 284 283 282 284 287 291 290 291 293 294 296 297 296 293 292 291 291 292 292 292 292 293 294 294 295 297 297 300 301 300 299 299 298 297 297 296 295 295 295 294 293 293 292 292 290 288 286 284 284 284 284 284 285 284 283 283 282 283 282 283 283 283
293 292 294 295 292 290 290 289 291 294 290 290 289 289 288 286 285 283 282 286 281 281 282 284 285 282 286 284 289 288 289 290 293 295 296 296 296 293 291 291 291 291 291 292 293 293 294 294 295 296 296 296 298 299 299 298 297 296 295 294 294 294 294 293 293 292 290 289 288 286 285 284 283 284 283 283 283 282 282 282 282 282 282 282 282 282
294 293 293 293 292 293 290 290 289 292 292 291 289 289 286 284 282 280 280 280 281 278 284 285 286 287 282 283 289 290 290 292 294 294 294 293 291 291 291 291 290 291 291 291 291 292 294 293 294 294 294 294 295 297 297 296 296 295 294 294 294 293 293 293 291 290 289 288 287 285 284 284 283 283 283 282 282 282 281 281 281 281 281 281 282 282
291 291 292 291 292 291 292 291 290 291 291 293 286 283 285 285 280 277 275 277 276 278 282 286 287 287 281 280 284 291 289 289 293 293 294 293 291 291 290 290 290 290 290 290 291 291 292 291 291 292 292 293 294 296 296 296 295 294 294 294 293 292 292 291 290 289 288 287 286 285 285 284 284 283 283 282 281 281 281 281 281 281 281 281 281 281
287 288 288 292 293 293 290 291 291 289 291 289 287 289 283 275 276 275 273 275 275 279 280 280 284 282 284 289 288 289 291 292 290 294 295 294 292 290 290 290 290 290 289 290 291 291 291 292 291 291 292 293 293 295 296 295 294 293 293 292 291 291 291 290 289 288 287 286 285 285 285 284 284 284 283 282 282 282 281 281 281 281 281 280 280 280
286 283 289 290 292 293 295 291 285 286 289 288 288 285 281 275 274 270 271 270 273 277 280 282 283 283 282 287 294 295 297 296 294 292 291 292 292 291 291 290 289 289 290 290 290 291 291 292 291 292 292 292 293 294 295 294 294 293 293 292 291 289 289 289 289 288 286 285 285 285 284 284 284 283 283 282 282 281 282 282 281 281 281 280 280 280
280 282 288 291 289 293 295 296 294 290 289 290 288 290 286 281 272 271 272 275 277 276 278 279 280 278 280 286 288 293 296 294 290 288 288 288 288 288 288 288 288 288 288 289 290 291 291 292 291 291 291 291 292 294 294 294 294 293 292 292 290 288 288 288 288 287 285 284 284 284 284 284 283 283 282 282 282 282 282 281 281 281 280 280 280 281
286 285 284 295 291 295 294 294 292 289 288 285 285 286 282 285 282 282 275 274 273 274 274 276 282 281 285 287 289 286 285 287 286 288 288 290 287 286 286 288 288 288 289 289 289 290 290 291 291 291 290 291 291 292 293 293 293 293 292 291 290 288 287 287 286 285 285 284 284 284 284 283 283 283 282 282 282 281 282 281 281 280 280 280 280 280
283 282 286 291 291 294 294 292 292 293 286 285 287 285 288 287 288 282 276 278 278 273 280 275 281 283 285 291 293 293 289 288 286 288 288 288 286 285 286 286 287 288 288 288 289 289 289 289 290 290 290 290 290 290 292 293 293 293 291 291 289 288 287 286 286 285 285 284 284 284 284 283 283 282 282 282 281 281 281 281 281 281 280 280 280 280
285 283 288 288 289 290 287 290 289 289 290 286 283 287 288 288 286 283 279 271 270 275 277 280 282 282 281 285 284 289 288 290 288 289 289 285 284 285 286 286 287 288 288 288 288 288 289 290 290 290 290 290 290 290 290 291 292 292 291 290 289 288 286 286 285 285 285 284 284 284 283 283 283 282 282 282 281 281 281 280 280 280 280 280 280 281
292 284 286 286 286 288 290 292 291 291 290 289 286 289 290 282 281 281 277 274 271 274 275 276 280 282 285 287 285 286 288 291 292 292 287 288 286 287 286 286 286 286 286 287 287 287 288 288 289 289 289 289 289 289 289 290 290 291 290 290 290 288 287 286 286 285 285 285 285 285 284 283 282 282 282 282 282 281 281 280 280 280 280 280 280 280
291 285 283 286 287 288 288 289 284 285 290 288 290 289 286 283 278 279 283 276 277 273 271 278 278 282 285 286 287 290 290 291 293 291 289 290 290 289 288 287 287 287 287 287 287 287 288 288 288 288 288 288 288 288 288 287 288 289 290 289 289 288 287 285 285 285 284 284 285 284 283 283 283 282 282 282 281 281 281 280 280 280 280 280 280 280
289 289 280 283 285 287 284 286 286 288 287 285 286 284 287 284 286 283 282 280 278 272 272 276 280 280 284 289 289 293 292 292 292 292 292 292 291 290 288 288 287 287 287 287 287 287 287 287 287 287 287 288 287 288 287 286 287 288 288 288 288 287 285 285 284 285 284 284 284 283 283 282 282 282 282 281 281 281 281 281 281 280 280 280 279 279
289 287 284 283 284 283 284 287 290 291 292 290 290 287 290 286 282 279 280 282 277 279 278 271 281 281 285 288 292 292 293 292 292 292 292 292 292 290 289 288 288 287 287 287 287 287 287 287 286 286 286 286 286 286 286 286 286 286 286 287 287 286 285 284 284 285 284 284 284 283 283 282 282 282 281 281 280 280 280 280 280 280 280 279 279 279
294 287 286 282 283 287 287 288 289 288 290 288 288 285 289 289 286 281 279 280 279 282 278 275 273 285 289 287 289 290 289 291 290 291 292 292 291 289 289 288 287 288 287 287 287 287 287 287 287 286 286 286 286 286 286 285 286 286 285 286 286 285 285 285 284 284 284 283 283 283 282 282 282 281 281 280 280 280 280 280 280 280 280 279 279 279
295 289 287 285 283 283 287 286 287 287 290 288 287 284 287 288 289 289 286 282 284 280 280 276 277 283 287 286 284 285 284 285 284 287 291 292 289 288 287 286 287 287 286 286 286 286 287 286 285 285 285 285 285 285 286 286 286 286 285 285 285 284 284 283 284 283 283 283 282 282 282 282 281 281 280 280 280 280 280 280 279 280 280 279 279 278
290 288 289 284 281 284 283 286 286 286 288 283 283 289 291 292 290 285 284 283 282 284 283 281 280 285 289 284 284 284 285 287 288 286 286 290 291 288 286 286 287 287 286 285 286 286 285 285 285 285 285 285 285 286 286 286 286 286 285 285 284 284 284 284 283 283 283 282 282 281 281 281 281 280 280 280 280 279 279 279 279 279 279 278 278 278
292 289 289 284 282 279 279 279 281 282 285 286 286 290 288 289 289 287 286 285 283 287 285 285 285 287 287 286 288 287 284 286 286 285 282 286 288 287 285 286 286 286 286 286 285 285 285 285 285 285 285 285 285 286 286 286 285 285 285 284 284 284 283 283 283 283 282 282 282 281 281 281 280 280 280 280 279 279 279 279 279 279 279 279 279 278
289 290 292 290 288 286 287 285 286 287 284 285 286 288 288 289 291 290 289 285 285 284 284 288 289 290 289 288 287 288 285 286 288 287 289 290 287 285 285 287 287 287 286 286 286 285 284 284 285 285 285 285 285 285 286 285 285 285 285 284 284 284 283 283 282 282 282 282 282 281 281 281 281 281 280 280 280 280 279 279 279 279 279 279 279 278
286 288 291 292 291 292 293 289 288 291 288 288 287 286 289 289 289 288 286 286 286 283 284 290 288 288 291 291 289 287 287 286 286 287 288 287 288 288 286 285 288 285 285 285 285 285 285 285 285 285 285 285 285 285 285 285 285 285 284 283 283 283 283 283 282 282 282 282 281 281 282 282 281 281 281 280 280 279 279 279 279 279 279 279 278 278
290 289 292 292 291 293 293 291 289 290 290 290 289 289 287 289 288 286 287 290 288 287 286 291 289 289 292 293 293 291 291 292 292 291 291 288 287 285 285 285 285 285 285 285 286 286 285 285 285 285 284 284 284 284 284 284 284 284 283 283 283 282 283 283 282 282 282 281 281 282 282 281 281 281 280 280 279 279 279 280 280 279 279 278 278 278
291 289 291 292 290 291 292 291 289 289 289 288 288 289 289 289 288 289 289 290 289 289 292 292 289 289 294 292 291 293 294 295 293 289 287 287 288 287 286 286 286 285 285 286 286 286 286 286 285 285 284 284 284 284 284 284 284 284 283 283 282 282 282 282 282 282 281 281 281 281 281 281 281 280 280 280 279 279 280 280 279 279 278 278 278 278
291 290 291 287 288 289 291 290 288 289 288 287 287 288 289 289 289 289 290 289 290 290 291 291 290 289 295 289 291 293 293 291 288 288 290 290 288 286 286 287 287 286 286 287 287 286 286 286 285 284 284 284 284 284 284 284 284 283 283 283 282 282 282 282 282 282 281 281 281 281 281 281 280 280 280 280 280 280 280 279 279 278 278 278 277 277
288 286 285 285 286 287 289 286 286 287 287 286 287 287 287 287 286 287 286 290 288 288 289 289 288 289 293 292 294 288 289 291 291 291 290 289 288 287 287 287 287 287 287 287 287 286 286 286 285 285 285 284 284 284 284 284 284 283 283 283 282 282 282 282 282 281 281 281 281 281 280 280 280 279 280 280 280 280 280 279 278 278 278 277 277 276
287 286 286 285 284 285 289 286 285 286 285 285 286 289 290 289 289 289 290 291 291 292 288 287 288 294 296 291 291 288 289 291 292 292 291 289 288 288 289 289 289 288 288 288 287 287 286 286 286 286 286 285 285 285 285 285 284 283 284 283 283 282 282 282 282 282 282 282 281 281 280 280 279 279 279 279 279 279 279 279 278 278 277 277 277 276
287 288 288 288 286 287 287 285 286 284 279 281 293 296 294 291 290 287 288 289 291 292 291 294 295 296 295 289 291 293 289 291 294 295 295 295 290 288 288 289 289 290 289 288 288 287 287 287 287 287 287 287 286 286 286 286 285 285 284 284 283 282 282 282 282 282 282 281 281 280 280 280 280 279 279 280 280 279 278 278 278 278 278 277 276 276
287 288 288 285 286 286 286 286 283 279 282 291 289 291 296 296 295 292 292 292 292 292 293 292 293 294 295 294 293 294 295 293 291 292 292 289 290 291 290 290 290 290 289 289 288 288 288 288 288 287 287 287 287 286 285 285 285 285 284 284 283 283 282 282 282 282 282 281 281 280 280 280 280 279 279 280 279 279 278 278 278 278 277 277 276 276
288 288 286 284 286 284 282 285 278 280 288 288 288 284 284 289 291 292 290 293 294 294 293 292 294 295 296 295 292 291 291 290 288 288 287 286 288 291 291 292 292 291 290 289 288 288 288 289 289 288 288 288 287 286 286 285 285 284 284 284 283 283 283 282 282 282 281 281 280 280 280 280 280 280 279 279 279 278 278 278 278 277 277 276 276 275
292 289 288 285 288 283 284 284 284 289 287 289 289 285 287 289 287 289 287 290 295 295 294 293 294 294 295 294 294 293 286 287 287 290 284 286 288 290 292 290 290 289 289 289 290 290 290 290 289 289 288 287 287 286 285 285 285 284 283 283 283 282 282 282 282 281 281 281 280 280 280 280 280 280 279 279 278 278 278 278 277 277 276 275 275 274
293 290 289 287 285 288 285 283 283 283 280 287 292 285 291 291 293 293 291 289 293 293 295 295 293 294 293 293 294 288 286 287 288 291 289 287 287 288 287 287 286 288 288 287 287 288 289 289 289 288 288 286 286 286 285 285 284 284 283 283 283 282 282 282 282 282 281 281 281 280 281 281 280 280 280 279 279 279 279 279 278 277 275 275 274 274
288 290 289 288 286 284 283 281 282 281 284 288 285 285 288 285 290 289 288 286 290 286 291 293 294 294 294 293 290 287 287 287 289 292 287 285 286 287 288 286 285 285 285 287 289 289 288 288 288 287 287 286 285 285 284 284 284 283 283 283 282 282 282 281 282 282 281 281 281 281 281 281 281 281 280 280 280 279 279 278 277 277 274 274 273 273
287 288 287 285 285 285 284 283 281 286 286 285 285 283 283 282 291 290 280 282 289 284 282 285 291 292 292 287 286 288 288 287 290 289 285 284 284 284 285 285 285 285 284 284 284 285 286 286 286 286 286 285 285 284 284 284 284 283 282 282 282 281 281 282 282 283 282 281 281 281 281 281 281 281 280 280 280 279 278 277 275 274 273 271 271 270
285 285 286 283 285 285 285 284 285 285 287 285 284 282 281 284 290 284 280 285 286 282 279 281 282 285 287 285 287 288 287 286 285 283 282 283 284 283 282 283 284 285 285 285 285 285 285 285 286 286 286 285 284 284 284 284 283 283 282 282 281 281 282 283 282 282 281 281 280 280 280 280 281 281 280 280 279 279 277 275 275 272 271 271 270 268
285 286 284 286 284 284 285 283 284 286 286 285 281 285 285 289 282 282 284 280 281 282 281 281 282 282 283 285 286 284 282 279 280 281 283 283 283 281 281 282 283 283 283 284 285 285 285 285 285 284 284 283 284 284 284 284 283 282 281 281 281 282 282 281 281 281 280 280 280 280 280 280 280 280 280 279 277 276 275 273 273 272 271 270 269 269
285 284 280 283 285 283 283 283 281 278 287 286 285 284 283 285 285 284 281 279 279 281 282 283 282 282 283 279 279 279 278 279 279 280 280 281 282 282 283 283 283 283 283 283 283 284 285 284 284 283 283 282 282 283 283 283 282 281 281 281 282 281 280 280 280 280 279 279 279 279 279 279 278 278 278 277 276 275 274 272 271 270 270 269 268 269
288 284 283 285 288 282 283 280 282 287 285 287 290 287 285 284 286 282 283 282 280 279 280 281 281 281 281 280 279 278 278 278 278 278 279 280 281 281 281 282 281 282 281 281 282 283 284 282 282 281 280 281 282 282 283 283 281 280 280 281 279 279 278 278 278 278 278 278 278 278 278 277 277 277 276 276 275 274 274 272 271 270 270 269 269 268
288 287 287 285 287 287 285 286 285 282 284 283 283 283 284 284 282 281 283 282 281 281 279 281 283 283 281 280 280 279 278 279 279 279 280 280 281 281 281 281 282 282 282 282 281 281 282 282 280 280 279 279 279 280 281 282 281 280 280 280 279 278 278 277 276 277 277 277 277 277 276 274 275 275 274 274 274 274 274 272 270 270 268 268 268 268
284 284 284 286 284 283 284 283 283 282 283 283 283 283 282 282 281 281 280 281 281 282 281 284 284 283 281 281 281 278 277 278 278 278 279 280 280 279 280 280 280 280 280 280 279 279 279 279 279 280 278 276 276 278 278 279 281 280 279 276 277 277 277 276 276 276 276 275 275 274 273 273 272 273 274 274 274 275 275 274 271 272 270 268 269 269
283 283 284 285 286 286 284 283 284 285 284 283 283 283 282 281 282 281 282 282 282 280 279 282 283 282 281 282 282 280 279 279 279 279 279 279 279 279 280 280 279 280 280 280 278 278 279 279 279 278 278 278 275 275 275 274 274 274 273 274 275 274 275 275 276 275 272 273 272 269 271 273 273 272 271 270 272 272 273 273 272 271 270 269 269 269
283 285 284 283 285 285 282 282 283 281 281 283 283 283 283 282 280 279 280 281 282 281 281 282 283 282 282 281 281 281 280 279 280 279 279 279 279 279 279 279 278 278 277 277 277 277 277 278 278 276 275 277 274 272 271 272 272 269 270 270 271 271 273 273 273 274 271 269 269 269 269 271 270 271 270 270 271 272 271 271 271 271 271 270 270 270
285 288 282 285 282 281 282 282 280 283 285 285 283 283 283 283 281 279 279 280 281 281 281 280 281 281 282 281 280 280 280 279 280 280 279 279 278 278 278 278 278 278 277 278 275 276 279 277 275 274 273 273 271 271 271 270 269 267 269 269 267 270 272 271 269 268 266 266 268 269 267 269 270 270 271 269 268 270 271 272 271 271 271 268 265 269
285 283 284 283 279 279 282 283 283 284 283 287 287 286 285 284 280 279 280 280 281 281 281 281 280 279 280 280 280 281 281 279 279 279 279 279 279 277 277 276 275 275 275 275 274 273 272 271 272 272 272 271 270 270 269 268 269 268 267 265 266 269 271 269 269 267 267 267 269 268 267 268 268 266 268 269 269 268 265 268 274 272 269 268 272 275
283 284 284 282 283 282 284 284 287 285 286 287 290 289 286 283 280 279 280 280 280 280 281 281 280 279 279 279 279 281 280 279 279 279 278 276 276 276 276 275 275 274 273 272 273 271 270 269 270 270 270 269 267 267 267 267 266 266 265 266 265 267 268 268 269 268 267 265 267 268 267 266 266 264 264 264 265 263 265 265 266 275 276 275 274 274
Wind_Speed
1 3 5 6 9 9 6 9 10 4 4 3 3 1 3 3 5 4 4 4 4 1 7 10 10 10 10 9 11 4 4 6 9 10 10 9 9 10 11 12 13 12 10 4 6 6 6 6 5 5 6 5 5 5 7 8 7 8 9 9 9 7 8 9 9 8 9 10 8 6 6 8 5 5 6 6 5 6 6 6 7 7 6 6 7 6
4 3 8 10 10 9 9 7 5 1 1 1 1 1 6 3 6 5 2 1 1 5 4 5 7 11 13 11 10 4 5 10 13 14 13 13 12 12 13 14 13 8 3 6 6 6 5 5 6 5 6 7 9 6 6 8 9 8 9 9 9 7 7 7 9 9 8 6 7 10 7 9 6 5 6 7 6 6 6 7 6 6 5 6 7 6
2 8 11 12 4 1 1 4 3 5 6 2 3 3 2 7 4 8 3 2 1 2 9 4 5 10 11 11 9 7 10 9 12 15 17 16 14 12 12 13 9 6 8 8 7 6 7 7 7 6 6 7 7 8 8 8 8 8 9 9 9 8 7 6 7 8 8 8 7 9 8 6 8 4 4 5 5 5 7 6 6 5 5 6 7 6
2 6 16 9 4 3 2 1 3 1 1 4 3 1 8 3 0 6 2 2 0 4 2 0 5 10 9 7 12 12 10 8 9 12 14 11 14 15 17 16 14 14 12 14 13 12 9 9 8 7 8 8 7 8 7 8 8 7 7 8 8 8 6 6 5 7 8 10 11 10 10 8 6 8 6 7 6 7 8 8 6 6 5 5 7 6
10 3 2 5 8 7 6 4 4 3 6 4 6 5 4 4 5 7 5 2 2 3 0 5 8 11 10 12 10 9 3 7 13 8 9 13 13 12 6 7 13 16 16 14 11 10 10 11 12 10 8 7 8 8 8 9 9 6 7 7 7 7 6 5 7 9 11 12 12 11 11 11 11 7 7 8 7 6 6 6 7 5 4 5 6 6
7 7 3 6 4 6 5 4 6 7 7 4 6 10 10 6 6 4 2 3 5 4 1 1 5 6 5 7 10 7 3 5 7 7 13 15 12 9 11 14 9 7 8 14 17 16 13 11 9 9 10 10 9 9 8 7 7 7 7 6 6 6 6 8 8 10 10 11 13 12 12 10 9 9 7 9 10 7 6 6 3 5 4 4 6 6
7 4 4 5 5 5 5 5 4 7 7 3 6 9 8 6 5 1 1 2 2 4 2 1 5 10 1 3 5 5 3 9 8 6 12 11 11 9 13 11 10 12 10 7 7 9 11 11 11 11 11 11 11 9 7 5 5 7 7 7 7 7 7 7 8 8 9 11 11 12 11 11 11 12 3 3 5 8 6 5 6 5 4 4 7 6
3 6 7 3 4 5 5 5 6 10 7 5 2 4 5 3 4 5 3 6 6 1 5 2 2 6 13 6 6 9 11 13 11 14 16 15 9 10 11 9 9 11 12 14 15 14 13 14 16 17 13 11 11 9 8 7 6 8 8 9 8 7 9 8 8 8 7 11 8 9 8 9 9 10 10 7 6 5 7 7 6 5 5 5 5 7
7 6 5 6 5 6 8 7 4 9 7 4 1 6 4 4 4 1 3 3 1 1 8 4 1 4 7 6 3 1 5 9 14 16 15 14 10 9 8 8 10 12 14 15 15 16 17 17 14 12 13 10 9 9 10 9 7 7 8 9 8 9 9 9 9 8 5 6 11 10 10 9 5 10 10 7 6 7 6 8 5 6 6 6 6 6
1 7 10 11 8 8 6 3 6 11 6 2 5 7 7 6 5 3 2 2 2 1 8 5 3 6 14 4 3 1 2 9 12 14 13 12 9 7 9 8 8 8 9 11 13 13 13 12 11 9 8 8 9 8 6 7 7 7 7 9 9 9 8 9 8 6 6 6 10 11 11 15 10 9 9 8 8 7 6 8 7 6 6 6 6 6
1 3 3 3 7 5 5 1 3 6 3 5 5 7 6 8 3 3 6 2 2 6 10 7 11 8 11 2 8 8 9 9 9 7 7 6 5 5 6 8 9 10 10 10 9 8 8 7 8 8 11 9 7 7 8 8 8 7 8 10 10 9 8 8 8 8 9 8 8 12 13 16 15 12 13 12 9 8 7 9 7 7 6 5 6 6
1 2 1 2 4 3 4 4 3 1 3 6 2 3 3 3 6 3 4 4 1 9 3 11 11 10 11 4 6 9 4 4 6 8 8 7 7 7 6 7 8 8 9 8 9 9 10 8 8 8 10 10 10 8 10 9 8 8 9 9 10 8 9 8 8 9 9 8 8 10 14 15 15 14 13 14 14 11 11 10 9 7 7 6 6 5
4 4 2 3 3 9 2 5 2 4 2 5 6 7 4 4 4 3 3 2 7 9 1 3 1 2 17 11 4 7 10 10 9 10 9 7 7 5 5 7 8 7 8 11 11 11 11 13 13 13 11 10 11 12 12 11 9 8 9 10 11 9 8 9 10 11 10 8 9 11 12 13 13 13 13 13 13 11 11 10 10 9 9 7 7 5
7 2 2 3 2 5 8 9 2 1 4 6 8 7 6 1 1 4 5 3 6 6 4 2 1 8 2 6 14 19 17 14 9 7 6 6 7 6 7 7 8 9 11 11 11 11 12 12 12 12 12 12 11 11 12 11 11 10 10 11 12 11 9 9 10 11 11 9 10 10 11 12 12 12 12 11 12 10 9 9 11 10 10 9 9 8
4 5 8 7 6 5 10 12 13 6 10 10 3 12 10 9 6 5 5 6 6 5 3 3 2 7 4 4 2 12 12 9 7 7 6 5 5 3 1 4 5 6 6 8 10 12 13 13 13 13 12 11 11 12 12 11 11 11 11 11 12 11 10 11 11 10 11 10 10 9 9 11 9 11 10 9 9 10 11 8 10 8 7 8 8 8
12 7 5 12 1 9 13 2 7 6 2 1 2 6 5 10 7 8 5 3 2 2 3 2 7 5 6 2 5 5 6 6 4 7 6 9 1 1 3 6 9 9 9 9 9 9 10 11 11 11 11 11 11 11 10 12 11 11 12 12 12 13 11 11 11 11 11 11 10 9 10 10 10 8 8 8 7 7 8 9 10 9 7 7 7 6
3 5 1 2 4 10 9 5 3 6 8 5 6 8 8 2 4 3 2 1 1 2 12 3 8 7 7 8 11 10 6 8 5 7 7 7 2 1 5 5 7 8 9 9 10 11 11 10 11 11 12 11 11 11 12 13 12 13 12 12 13 11 10 12 12 12 11 11 11 10 9 9 9 10 11 11 10 9 7 7 7 8 7 7 7 7
8 5 1 4 4 1 1 1 3 4 5 7 4 8 2 2 4 4 5 3 1 5 7 4 10 6 1 12 3 2 6 8 7 11 9 4 3 5 7 7 8 10 9 8 7 7 10 12 13 11 10 12 13 12 11 11 11 11 12 13 14 12 13 10 11 12 11 12 12 11 10 9 10 10 9 10 11 9 9 7 7 7 8 8 7 7
4 5 1 1 1 3 2 3 3 2 2 7 7 4 8 5 3 2 3 4 1 6 7 5 4 10 9 11 1 2 7 11 14 13 6 9 7 11 7 7 6 5 5 8 9 9 10 11 11 11 11 9 9 9 9 9 9 10 10 11 13 14 12 12 9 10 10 11 10 9 10 10 9 8 8 8 8 9 10 10 9 9 9 8 7 8
1 5 2 1 2 1 1 4 9 4 1 2 3 3 1 3 1 5 8 3 5 5 3 8 5 11 8 7 10 9 12 13 11 8 9 13 12 11 9 8 9 10 10 9 10 10 10 10 11 11 12 12 11 11 9 9 8 12 12 11 10 10 10 10 11 10 12 10 10 10 8 7 8 8 8 9 10 10 10 10 10 10 9 10 8 7
3 1 6 1 3 2 3 4 9 13 11 2 2 4 1 0 1 3 0 4 4 3 5 7 12 4 6 7 9 11 11 12 11 11 10 11 11 10 8 10 10 10 10 10 10 10 10 10 10 9 8 9 9 8 8 9 11 11 10 11 11 13 11 11 11 11 11 10 10 11 12 11 9 10 9 9 9 10 10 9 9 9 9 8 8 8
3 2 7 2 1 7 7 3 5 8 8 11 15 15 16 11 6 4 8 2 2 2 7 2 18 2 4 4 9 9 9 8 9 8 9 10 11 8 8 9 9 10 9 9 9 9 10 9 9 8 8 8 9 10 10 9 9 10 11 11 11 11 12 12 11 12 11 10 10 12 12 11 9 9 9 10 9 9 10 9 9 9 8 9 8 8
7 3 6 6 7 10 6 1 1 3 0 1 2 2 3 4 4 3 5 6 0 6 3 3 2 16 6 5 6 6 5 7 6 6 10 9 8 7 7 6 7 8 9 9 9 9 9 10 11 11 12 12 12 11 11 10 11 12 11 12 12 13 12 12 12 10 10 11 11 12 10 10 10 10 11 11 10 10 10 9 9 8 10 9 8 6
6 3 3 1 0 3 4 2 2 3 3 1 1 1 5 8 9 11 7 5 7 2 3 2 5 8 2 0 2 3 3 5 4 5 9 8 6 6 5 5 7 6 5 5 6 7 8 8 8 9 11 12 11 12 13 12 11 11 12 12 11 13 12 10 10 11 11 11 11 11 11 11 11 12 12 12 10 12 10 10 9 9 9 9 8 9
5 4 6 2 1 0 2 2 2 2 1 3 4 8 12 10 8 1 3 1 2 11 9 8 15 10 3 2 1 1 0 2 7 4 4 8 8 6 4 4 6 7 7 7 9 9 8 9 12 13 12 13 12 12 13 13 13 13 12 11 13 12 12 11 10 11 11 12 13 12 12 12 12 13 13 12 11 12 11 10 10 9 9 9 9 8
7 7 9 8 12 12 10 11 13 10 12 4 4 6 4 8 11 5 6 5 7 12 14 10 17 5 1 3 2 2 1 4 5 6 3 6 7 4 3 5 7 9 10 10 9 10 13 13 10 10 11 12 13 13 13 12 12 12 12 13 11 12 12 12 10 12 12 12 14 13 13 13 12 13 14 13 11 12 11 11 10 10 8 9 11 9
4 4 11 14 15 16 16 4 3 10 5 8 9 13 14 12 12 11 7 7 17 3 7 18 20 12 9 3 5 5 2 6 6 5 8 7 6 5 5 6 7 8 9 11 12 10 7 10 16 15 14 13 12 11 12 13 13 12 12 12 11 11 12 12 12 12 13 13 14 13 14 14 14 13 13 12 11 10 10 11 10 10 11 9 10 11
3 5 13 17 19 21 19 7 9 18 15 17 14 14 17 16 16 15 14 20 5 3 15 19 4 10 23 8 8 5 6 5 7 8 7 6 7 7 5 4 5 5 6 6 8 12 16 16 12 13 14 12 12 11 11 11 12 13 13 14 12 11 12 11 13 13 13 13 13 14 15 14 13 13 12 10 10 11 11 10 11 11 9 9 10 10
7 9 16 16 19 22 20 11 13 13 15 15 17 17 18 18 15 19 24 21 9 14 20 18 11 16 22 14 11 7 7 10 11 12 10 6 2 3 5 6 8 9 7 11 14 14 14 14 15 13 11 12 10 12 13 12 12 11 10 11 12 12 14 13 13 14 14 13 14 15 13 11 10 9 10 11 11 11 11 11 10 10 9 9 9 8
5 8 11 14 18 17 18 10 10 14 9 7 13 18 19 21 25 26 26 21 15 16 20 23 9 15 23 6 6 9 13 13 8 3 1 4 7 7 6 7 9 10 12 15 16 16 14 13 10 12 12 12 14 14 13 13 13 13 14 13 12 13 12 12 14 14 14 15 14 12 11 11 10 11 11 11 12 12 11 11 11 10 10 10 9 9
4 9 5 5 8 16 19 7 9 14 11 10 10 13 18 22 25 26 22 15 15 18 22 19 16 21 18 4 6 7 7 3 1 6 10 10 6 6 8 10 10 11 14 15 12 13 13 11 11 11 13 15 16 16 15 13 11 10 11 11 12 12 12 12 13 13 14 14 12 11 11 11 12 11 13 13 11 10 11 12 10 9 9 9 9 9
2 4 4 3 7 12 11 5 6 5 7 9 10 14 21 21 16 11 9 15 14 20 21 16 17 24 10 7 8 5 5 8 11 12 10 9 9 9 10 11 11 12 13 15 15 12 11 14 14 16 18 18 16 15 14 13 13 12 14 12 12 12 10 11 13 14 13 13 11 11 13 12 12 12 12 12 12 11 10 9 9 10 10 9 9 8
9 4 3 3 6 11 11 10 9 7 1 7 15 26 25 13 13 11 16 15 18 19 15 16 22 19 17 6 6 5 8 11 12 10 11 10 8 11 14 14 14 14 14 15 13 14 16 17 18 18 16 14 15 17 17 14 12 14 14 12 11 9 11 13 12 13 12 12 12 12 12 11 12 12 11 12 11 10 10 10 10 10 11 12 9 7
6 9 10 8 10 11 6 8 6 5 11 14 22 17 13 17 17 17 17 18 16 13 16 19 20 20 13 6 11 12 10 12 15 15 12 12 11 10 12 11 12 13 12 10 11 12 12 9 10 11 13 13 12 12 10 12 14 11 8 9 8 11 11 12 12 11 12 11 11 11 11 11 11 11 11 10 10 10 10 11 12 11 9 8 8 9
8 10 9 2 5 9 4 10 5 14 16 14 4 2 10 19 20 21 21 16 17 17 18 18 19 20 18 12 12 12 11 11 9 10 9 7 7 10 14 16 15 14 14 12 11 11 11 12 10 9 10 11 11 10 10 10 9 8 9 10 11 11 12 12 11 11 11 12 11 10 10 11 11 11 11 10 10 10 11 11 10 10 10 10 11 11
9 10 4 1 3 4 4 8 10 13 6 4 5 1 2 2 3 7 12 18 20 21 22 23 25 25 22 17 10 9 9 7 5 7 6 4 6 9 11 13 13 11 10 8 9 8 9 10 12 12 11 7 9 11 12 12 10 10 10 9 10 10 10 11 11 11 9 11 10 11 11 11 11 11 10 10 10 11 11 11 12 12 9 8 7 6
14 6 7 7 5 10 7 12 17 4 11 9 9 4 6 8 8 13 13 17 21 20 20 19 23 23 19 16 15 11 2 1 6 10 3 7 9 8 8 4 2 5 6 6 9 10 8 7 9 8 7 8 10 10 11 9 10 9 9 10 10 10 10 10 11 12 12 11 10 11 11 12 12 11 11 11 11 11 12 12 12 10 7 9 9 9
9 14 7 12 7 11 12 11 6 7 13 20 13 2 9 7 11 10 10 13 13 13 16 16 18 20 19 17 15 5 3 4 12 15 7 6 3 3 2 3 4 5 6 6 5 6 6 6 5 6 9 9 9 9 8 10 11 11 10 11 10 11 11 11 14 13 12 12 11 12 12 11 11 11 11 11 13 14 13 10 7 8 8 11 11 11
3 2 7 16 7 7 10 11 10 11 14 5 2 5 5 3 7 6 5 14 7 4 9 14 18 20 17 16 9 8 5 9 14 14 3 5 5 4 4 2 1 2 3 5 7 7 6 6 7 7 8 9 10 9 10 11 12 11 11 10 11 11 11 14 14 13 13 12 10 9 10 10 10 11 12 13 13 12 12 11 11 8 7 8 7 8
11 9 6 9 10 10 11 11 12 7 9 3 5 1 3 2 8 7 4 11 2 3 1 6 16 15 10 3 7 8 9 12 16 6 3 3 4 2 3 6 5 4 3 3 3 4 6 7 8 7 8 10 9 9 11 11 11 11 11 11 10 11 13 16 14 10 8 8 9 9 9 9 11 11 11 13 11 9 9 6 6 8 9 8 7 7
7 5 9 16 13 15 15 10 4 6 3 3 7 3 3 4 7 10 17 5 1 2 1 3 5 6 4 5 8 9 8 5 2 1 4 5 7 5 4 3 3 3 5 5 5 6 7 5 7 8 7 6 8 9 10 10 10 11 10 10 11 14 15 9 6 8 8 8 7 8 9 8 10 12 11 10 10 8 6 6 8 6 7 8 7 6
7 7 2 6 12 12 12 13 12 6 5 7 1 10 8 9 8 15 3 1 2 1 0 4 4 2 3 6 6 3 2 1 1 3 4 4 6 4 4 5 6 8 7 6 6 6 7 6 6 6 5 5 8 9 9 9 10 9 8 8 12 13 5 6 7 7 7 8 8 8 9 9 8 8 9 7 7 8 8 6 6 7 7 6 6 8
13 10 9 12 5 1 2 10 3 9 5 11 11 2 3 6 5 3 3 0 2 1 1 0 3 3 6 4 3 7 4 3 3 4 4 4 6 6 5 5 7 7 7 6 6 4 7 8 7 7 6 6 7 8 8 10 9 8 7 11 11 5 6 5 6 7 7 7 8 8 8 8 9 9 7 8 9 9 9 7 7 6 7 7 7 8
4 6 3 7 8 8 11 10 9 5 7 11 14 12 7 4 3 6 5 2 1 1 1 1 0 2 2 10 9 6 4 6 4 3 5 5 5 5 5 5 6 6 6 5 4 6 7 8 7 7 5 5 5 6 7 10 9 8 9 10 3 5 5 6 5 6 7 7 7 7 7 8 8 8 7 8 8 8 8 8 8 7 8 8 8 8
6 8 3 9 5 8 5 3 0 2 3 2 3 3 1 2 1 5 2 3 5 3 3 4 3 3 6 9 8 8 6 2 5 3 5 5 5 5 6 5 4 6 6 7 5 4 5 8 9 8 6 4 5 4 6 6 9 8 9 4 5 5 6 6 6 7 7 7 7 8 7 6 7 7 7 7 9 9 9 7 7 8 6 7 7 8
4 2 1 5 2 1 2 3 0 2 1 0 2 0 0 1 0 2 3 4 0 2 5 6 5 6 6 7 10 2 4 6 6 4 5 5 5 5 5 5 5 5 5 6 6 6 6 7 7 8 7 4 3 4 4 5 7 10 4 3 4 5 6 7 7 7 7 7 6 7 6 7 6 6 7 7 8 9 9 10 10 10 8 8 9 9
2 0 1 3 0 6 6 4 4 3 1 1 1 1 0 0 0 0 1 2 4 3 2 3 6 6 7 4 7 8 6 5 8 6 6 6 6 5 5 5 3 3 5 6 4 6 7 7 7 6 6 6 2 3 4 4 3 3 4 5 5 5 6 7 7 6 5 6 5 4 6 7 7 6 5 5 5 6 6 7 7 8 8 9 9 9
3 3 4 1 4 7 0 2 1 2 4 3 3 2 2 2 1 1 1 2 4 2 2 3 4 5 4 5 6 10 7 5 8 7 6 6 7 6 5 6 6 4 3 3 4 5 5 6 7 6 5 6 3 3 4 4 4 4 4 4 4 5 6 6 6 7 6 6 5 6 6 7 7 8 7 7 7 7 7 7 7 9 11 12 12 11
2 6 4 4 3 1 2 2 2 1 3 4 4 4 3 3 4 4 4 5 5 8 6 4 3 3 4 5 5 8 7 3 4 7 8 6 6 5 5 5 4 4 5 6 3 4 6 6 6 5 4 3 3 3 4 4 3 2 4 4 4 5 5 5 4 4 5 5 6 7 6 7 8 8 8 7 7 8 8 9 9 9 8 3 3 7
4 6 3 5 3 3 8 6 8 6 4 7 7 8 7 5 5 5 5 6 6 8 6 7 4 3 4 4 5 7 8 6 4 5 6 5 5 4 4 4 4 4 3 2 3 3 4 5 5 5 4 2 2 4 4 3 2 2 2 2 3 4 5 4 4 4 4 4 4 4 5 5 6 5 6 6 7 6 5 4 5 6 6 5 2 7
6 6 7 7 8 7 4 5 8 1 0 4 9 8 8 7 7 7 7 7 4 4 7 10 7 4 3 2 1 6 7 8 7 5 7 5 4 4 5 6 6 4 4 3 5 4 5 4 5 5 5 3 3 4 4 4 3 4 5 4 2 1 3 4 4 3 3 3 4 4 4 3 3 2 3 2 3 3 4 4 3 5 7 7 7 8
Wind_Direction
120 119 172 197 216 211 201 192 199 200 150 115 111 125 219 217 280 289 268 252 190 84 229 226 232 245 258 250 261 225 190 231 247 247 237 230 217 214 216 216 214 212 214 167 177 175 176 175 176 183 159 162 156 159 158 154 157 156 151 145 146 150 144 139 136 134 134 127 111 79 90 99 80 84 82 69 58 63 54 70 74 77 81 85 88 88
67 162 241 222 214 198 199 205 234 326 169 176 204 192 274 177 255 236 235 335 265 174 286 242 242 251 254 262 260 242 157 222 226 235 240 234 222 219 214 217 215 204 97 150 175 185 176 175 180 183 168 165 165 173 168 165 166 163 155 151 150 156 158 153 146 139 131 131 138 135 129 115 101 93 94 93 66 70 66 62 63 71 77 83 86 90
150 192 234 228 200 126 142 184 206 206 248 254 205 249 285 267 248 285 264 284 282 145 259 265 234 256 255 256 262 240 216 227 219 218 227 224 225 221 218 217 203 166 186 177 182 176 180 179 180 185 173 177 174 169 171 168 163 166 162 157 155 158 158 156 146 140 134 123 119 120 126 121 106 55 76 88 86 76 77 63 58 64 73 84 82 86
248 285 246 230 131 160 261 167 146 199 247 238 274 207 237 235 102 290 291 357 279 169 257 317 295 275 272 258 255 248 223 239 235 231 238 227 226 220 214 203 195 198 180 185 183 183 179 177 179 184 178 179 172 171 173 171 168 168 168 161 156 155 153 145 128 116 112 112 105 92 105 92 93 123 101 86 78 76 77 68 59 52 67 77 89 86
195 218 266 142 169 167 208 209 154 163 245 251 209 219 237 221 233 191 250 311 308 320 46 294 294 278 245 255 263 258 264 248 257 238 244 243 234 236 234 218 207 198 185 179 176 179 179 181 186 184 174 172 178 180 176 173 170 163 168 160 154 143 138 128 127 126 122 112 98 100 92 101 98 78 93 93 71 69 81 85 64 54 57 80 89 87
266 255 78 102 149 177 182 230 215 169 232 268 224 201 216 209 218 267 345 13 12 330 323 129 321 276 280 249 247 275 337 282 258 230 241 240 234 225 221 216 200 198 183 182 183 182 181 177 173 180 179 180 180 183 179 171 165 154 155 150 136 119 120 133 135 139 133 128 127 130 129 128 121 118 125 126 131 120 103 102 96 62 55 80 86 83
206 216 167 157 145 168 186 203 235 165 212 205 267 195 208 194 200 219 266 74 292 248 297 32 212 281 274 227 225 261 252 257 272 254 253 244 238 218 225 213 192 184 173 178 178 175 177 183 179 182 185 184 177 180 167 163 159 155 147 141 135 136 132 136 143 149 135 133 138 142 140 138 139 130 90 82 92 116 107 98 92 89 64 64 90 82
143 216 209 189 155 163 179 221 238 172 172 237 246 148 167 160 195 222 191 179 232 260 298 9 135 264 289 252 218 228 243 257 270 269 264 258 233 226 226 210 192 184 181 180 185 185 185 182 184 183 182 182 180 165 161 161 158 158 150 142 140 141 145 147 151 153 157 140 138 126 124 127 132 131 132 130 117 102 114 103 100 98 79 68 74 91
159 190 185 194 191 188 206 206 192 160 159 218 207 131 144 179 184 130 172 188 222 27 279 304 343 303 237 274 316 181 250 264 257 254 258 261 250 230 225 207 197 188 185 180 180 186 187 186 187 177 179 179 168 167 169 165 160 151 145 139 142 151 147 149 154 152 158 149 139 133 126 112 111 123 125 124 119 115 116 109 103 96 92 82 71 76
303 174 199 176 169 212 216 228 163 161 199 261 133 88 76 75 68 101 96 105 321 80 253 223 187 227 273 230 190 342 228 249 251 250 252 255 258 233 218 213 194 181 183 190 191 185 185 183 180 175 158 164 175 163 153 151 150 151 146 143 151 150 149 149 148 143 135 147 137 132 134 128 132 130 125 126 128 124 131 117 116 108 103 99 90 78
248 295 177 123 200 199 136 84 165 197 172 130 82 65 16 41 28 19 64 86 14 258 244 206 213 186 284 212 186 173 220 204 239 276 273 271 270 244 220 196 185 183 182 183 180 180 178 169 164 159 169 170 161 157 152 154 158 155 152 150 154 154 147 148 145 144 147 151 146 136 142 138 142 145 138 136 135 134 136 129 127 121 114 107 100 93
351 360 141 256 107 94 109 83 24 85 117 130 99 116 51 336 13 31 340 42 216 265 230 213 213 179 229 284 276 241 256 228 206 226 246 263 253 237 208 198 191 180 177 168 165 169 162 155 164 166 170 170 168 159 159 161 159 160 158 156 151 154 152 147 148 147 149 151 147 143 145 145 148 152 148 146 147 152 144 141 134 132 118 106 98 97
277 210 253 328 210 131 117 100 11 29 32 87 96 82 126 258 27 296 27 273 209 236 254 360 79 343 239 238 263 281 258 257 225 222 231 235 258 244 224 202 184 173 165 173 175 168 172 174 171 176 174 169 172 174 168 165 162 159 158 158 152 160 157 154 153 152 152 149 151 152 150 148 150 153 149 148 147 154 147 146 141 142 132 130 121 130
267 278 318 251 3 241 146 166 183 77 209 121 145 149 137 231 245 276 263 259 301 293 276 359 101 253 288 268 222 242 251 238 241 235 238 239 243 237 219 195 175 179 180 179 174 176 177 175 176 176 174 176 173 172 170 166 163 162 160 163 161 162 161 158 156 155 153 156 154 155 155 153 153 153 153 153 150 155 150 151 148 147 147 147 147 147
232 302 238 138 239 181 186 200 186 162 158 200 110 153 185 154 150 237 185 217 227 225 288 274 125 234 128 241 246 237 249 280 289 285 265 249 254 273 215 157 161 174 185 175 178 181 179 177 174 175 176 177 177 174 171 170 166 161 162 166 163 159 167 163 161 156 156 154 156 157 159 155 156 153 153 153 152 151 149 151 143 141 144 143 148 147
216 234 262 201 291 162 188 202 109 90 81 240 163 59 95 217 150 237 195 182 254 317 322 201 210 193 190 250 287 238 280 288 317 291 299 285 1 107 136 172 184 186 184 182 181 180 181 176 174 173 177 177 177 177 173 172 169 167 166 166 166 165 168 166 160 162 158 157 156 158 162 161 155 150 143 138 141 146 148 148 146 145 144 142 138 138
49 264 283 13 40 178 187 138 180 149 197 209 109 195 210 156 156 283 5 18 82 32 252 143 283 274 303 280 238 250 248 269 301 278 269 266 285 200 202 197 196 194 186 185 185 180 176 175 182 179 176 175 178 179 179 177 175 171 164 166 165 168 169 167 166 161 161 156 157 165 164 159 155 154 155 154 152 148 143 139 140 141 142 138 141 141
158 234 306 110 205 313 72 120 110 24 143 99 176 226 96 95 112 145 232 341 64 222 271 163 235 279 43 280 333 256 247 263 261 257 249 284 262 233 222 205 199 197 196 190 182 181 181 180 179 178 180 180 180 179 178 179 175 172 168 169 166 168 171 174 165 162 162 161 162 164 166 164 161 157 154 151 150 146 140 137 134 135 141 153 154 147
132 290 259 332 97 330 348 86 27 6 37 153 192 198 138 241 244 287 95 269 224 261 280 272 239 254 190 247 60 192 206 239 244 246 252 262 244 239 227 216 210 198 181 183 184 180 183 184 183 179 179 179 179 180 181 174 171 169 171 174 172 171 173 168 167 161 162 164 163 166 168 164 160 157 151 148 145 146 147 150 153 154 150 144 151 149
127 187 292 340 118 288 30 133 196 201 5 42 69 125 67 101 169 130 201 183 115 264 25 280 107 256 184 225 190 218 203 217 233 244 233 241 236 230 223 206 197 197 196 189 188 187 183 183 182 178 175 176 177 178 181 175 174 175 174 172 172 166 163 164 166 165 165 169 162 161 158 162 159 154 153 153 152 155 156 158 156 154 155 161 153 154
217 167 251 282 312 97 190 190 193 167 181 129 121 193 177 133 249 119 25 146 171 195 197 291 289 264 246 205 186 210 204 210 204 226 236 238 239 232 221 203 200 200 195 193 189 184 181 181 178 177 177 177 176 178 175 177 181 176 168 173 171 168 168 169 169 166 167 162 166 161 166 164 161 159 155 154 160 155 158 159 158 160 157 146 158 153
201 170 198 148 199 222 249 250 219 205 195 187 179 190 184 157 152 166 255 53 141 161 245 160 264 221 264 166 194 204 217 215 215 200 238 245 244 228 218 211 199 198 201 191 187 179 178 178 177 173 171 174 172 177 179 178 175 177 176 175 171 169 173 171 172 171 165 166 163 169 164 163 160 156 155 157 159 160 161 164 163 160 155 159 159 158
169 143 105 193 207 203 215 236 262 221 169 165 177 260 203 196 128 133 211 231 160 248 115 190 329 272 206 172 208 194 213 213 240 207 219 248 257 245 222 207 202 199 192 188 182 182 180 180 178 178 177 178 182 180 178 178 183 181 179 176 179 174 181 176 171 166 162 162 166 169 164 160 161 159 161 162 164 165 167 166 164 164 161 160 159 164
105 117 155 261 305 318 307 308 46 55 120 319 310 119 123 201 192 207 209 178 188 211 193 276 251 268 316 95 266 219 234 268 224 193 233 240 252 259 232 196 191 187 185 180 179 176 178 177 172 172 182 182 183 183 184 184 184 183 183 182 176 181 172 170 170 165 164 163 165 164 162 166 163 164 167 169 170 170 170 167 167 167 163 160 160 162
154 242 161 140 339 347 353 331 328 348 86 188 184 201 201 207 207 127 86 106 229 221 170 159 241 244 259 344 325 348 39 278 261 222 198 253 258 241 200 191 190 183 172 177 180 178 173 178 183 189 186 185 186 187 186 186 187 183 184 181 180 179 173 168 166 167 167 165 164 167 169 170 170 170 172 172 172 173 170 170 166 168 165 160 166 168
175 154 156 197 216 222 218 200 205 193 196 197 242 207 197 194 197 162 244 208 228 243 153 214 247 225 245 304 295 295 339 266 263 267 252 225 249 250 207 189 188 184 187 181 178 177 189 190 187 189 193 192 193 189 186 187 185 185 184 187 180 173 171 172 167 171 168 169 167 171 174 174 174 176 176 174 174 174 173 169 169 167 168 171 168 166
173 180 183 195 212 226 231 228 79 102 87 193 209 181 210 208 208 205 228 219 225 212 170 226 232 261 264 205 242 246 219 240 247 259 251 244 254 248 210 200 193 192 186 186 184 187 179 191 198 196 192 194 192 189 188 186 186 186 185 183 183 178 172 170 171 172 172 173 173 173 179 179 180 176 177 177 174 172 172 172 171 170 173 177 173 168
84 171 209 211 214 226 236 204 181 156 181 204 194 200 205 201 201 197 205 228 121 99 255 244 155 248 259 223 234 222 256 267 266 257 262 272 251 226 209 181 182 185 190 183 187 189 197 200 196 196 196 190 191 189 189 190 189 186 185 183 180 175 173 173 174 175 176 175 178 181 183 182 179 177 177 173 172 176 175 172 174 176 172 170 174 174
163 195 213 205 221 229 234 217 171 183 187 194 202 200 200 206 199 206 222 223 135 215 238 255 153 232 255 238 233 195 214 223 221 229 231 229 222 180 171 185 194 199 190 194 204 203 198 197 199 194 191 192 184 190 191 188 189 186 186 184 182 178 182 174 173 177 179 181 184 187 182 175 177 174 170 171 174 177 178 178 176 173 173 176 177 176
162 221 209 196 223 234 239 220 164 187 208 209 206 205 202 200 206 209 219 216 202 228 241 255 218 228 250 236 189 203 215 227 232 206 153 185 218 203 192 206 205 198 199 207 208 204 202 200 190 192 187 186 192 192 192 192 191 190 185 186 183 182 180 171 180 178 182 186 189 182 176 175 173 172 171 174 181 181 178 176 176 176 176 180 180 175
155 229 173 160 216 238 241 215 160 198 195 210 225 218 215 213 212 210 214 217 218 240 247 253 266 266 256 125 226 212 219 211 227 218 221 225 218 194 205 215 214 208 211 215 211 206 200 193 192 186 191 194 191 193 194 195 191 186 188 185 183 185 182 178 177 184 185 189 186 178 172 173 177 172 178 182 178 179 179 179 177 176 179 180 179 176
109 267 32 82 202 248 248 167 183 202 214 221 231 229 228 221 220 214 212 217 201 221 234 248 255 252 259 162 240 165 167 197 217 227 226 229 213 200 208 221 218 218 217 217 212 201 193 194 192 193 196 195 192 189 190 191 188 185 193 186 184 181 173 184 186 185 188 187 178 177 178 179 174 177 181 178 183 182 181 176 175 180 181 179 179 179
164 146 144 139 194 237 257 125 168 181 148 267 249 235 226 218 214 213 223 218 210 209 218 226 238 247 248 206 221 225 201 214 227 224 226 231 214 201 209 216 218 220 220 216 205 200 200 198 197 198 197 191 191 192 195 185 178 193 192 185 182 164 178 190 192 189 186 184 182 182 179 176 178 181 180 185 183 180 177 177 179 184 183 188 183 166
151 176 202 158 216 232 224 133 122 134 215 225 237 241 222 215 201 208 219 218 220 199 218 223 236 247 248 207 221 230 211 220 222 229 213 208 202 212 226 230 228 225 225 221 211 207 206 199 202 201 198 199 199 196 183 185 192 189 175 170 164 178 183 188 194 192 189 183 185 180 178 179 179 184 185 182 181 178 180 182 190 189 185 176 172 183
179 186 211 143 199 222 130 112 165 215 228 240 20 180 207 217 214 213 226 223 222 222 236 251 256 255 248 227 226 237 237 236 236 239 236 227 207 202 208 218 223 221 218 212 203 201 198 196 196 191 187 190 183 174 173 187 184 167 168 171 176 183 183 190 190 194 190 187 183 176 177 180 183 186 186 184 180 180 186 189 188 185 188 186 187 184
178 191 140 250 147 42 118 175 231 224 246 344 258 349 278 64 175 197 244 240 229 222 218 230 240 245 248 244 236 236 240 256 279 254 241 233 197 211 216 221 225 220 219 207 197 189 183 188 190 191 193 167 159 175 180 184 173 171 178 170 176 177 183 185 192 196 191 190 183 180 180 181 186 189 185 182 182 186 190 191 192 192 187 184 189 195
179 174 168 217 173 217 201 216 232 323 314 283 268 232 159 171 162 175 221 242 234 224 219 223 236 245 252 254 249 243 236 340 283 274 233 207 211 219 222 236 177 196 186 177 177 191 185 175 182 182 154 162 173 172 181 167 164 165 160 168 177 175 180 183 194 198 196 194 184 183 183 186 187 187 185 185 184 190 194 194 196 194 176 184 192 189
175 194 183 211 206 205 217 236 239 238 244 248 241 162 190 181 173 181 189 257 249 222 219 215 232 242 244 247 250 233 101 263 271 262 218 221 216 157 137 172 174 170 174 168 150 148 154 158 146 148 155 157 167 169 155 156 162 164 167 174 174 176 184 189 201 199 196 194 188 189 186 186 185 187 188 184 193 196 200 198 192 192 181 188 189 198
267 253 184 205 200 174 218 228 224 228 240 237 260 189 182 129 140 127 161 248 257 160 200 192 222 235 234 235 231 107 156 230 253 256 227 163 174 169 142 79 84 125 150 166 171 162 155 152 148 145 143 150 162 161 153 155 159 165 176 175 178 181 188 199 203 198 196 195 188 183 183 186 187 190 190 195 201 198 196 195 195 184 175 200 199 210
199 194 169 221 218 203 208 222 227 214 245 223 200 223 217 145 127 109 181 247 275 196 211 195 218 227 236 212 148 168 177 228 241 260 164 134 122 71 130 145 132 122 104 99 74 115 126 127 116 130 148 164 163 148 152 154 160 170 174 180 175 185 199 205 202 193 189 184 181 181 185 187 190 194 194 201 201 196 201 184 162 177 187 196 198 198
192 211 200 208 208 214 213 238 282 269 270 187 181 183 160 177 134 161 221 233 204 243 219 166 223 237 199 164 161 191 227 228 232 179 109 130 97 69 53 59 81 84 90 82 90 99 105 113 131 147 155 148 140 144 149 153 160 175 178 174 181 201 208 194 170 179 182 175 175 181 187 190 192 196 200 198 197 191 183 179 186 172 178 194 193 189
211 197 234 206 220 214 215 221 231 258 233 161 231 159 169 115 196 220 214 148 141 203 239 188 224 233 161 170 180 168 158 238 62 85 104 89 105 101 86 79 73 62 47 59 74 95 101 91 92 93 92 115 139 145 150 155 165 169 167 174 201 210 159 153 170 163 164 174 181 185 187 191 196 196 196 184 168 176 191 189 178 185 188 182 184 200
182 182 184 204 199 301 91 228 198 238 232 125 122 56 273 183 237 133 132 283 211 221 144 103 162 176 139 92 108 133 124 70 67 81 89 105 108 114 112 102 101 109 110 106 90 77 110 111 110 112 118 127 136 144 151 150 156 160 165 193 207 156 151 154 152 160 168 176 181 186 188 189 188 188 183 184 183 184 191 179 182 187 176 181 191 202
171 178 183 220 177 194 197 212 212 228 135 179 148 178 185 194 169 161 126 125 250 188 189 151 342 180 122 131 133 117 117 113 80 94 84 80 91 84 83 90 94 88 81 67 95 120 116 108 107 103 93 104 125 138 147 153 152 161 179 208 132 142 137 144 152 153 165 178 186 184 189 190 190 189 186 183 177 184 186 185 189 185 189 188 189 198
207 198 172 193 173 188 204 214 325 304 120 142 63 357 120 162 145 175 128 144 155 232 196 128 162 135 140 130 120 131 126 135 138 146 128 135 120 114 111 108 107 120 123 120 103 90 92 112 112 103 86 79 111 131 145 152 149 162 193 183 140 143 150 147 151 159 175 185 188 192 190 180 186 189 187 183 176 184 193 192 176 190 196 180 197 202
8 135 321 96 262 68 45 188 41 333 255 333 19 301 43 44 352 110 121 101 220 190 184 162 162 149 144 146 121 89 114 145 124 104 103 103 95 84 83 84 73 70 77 82 75 69 92 92 98 106 110 85 101 131 134 146 154 171 192 148 140 146 144 149 151 172 186 186 187 190 170 179 193 191 192 186 190 196 195 188 187 195 191 188 205 208
289 59 59 137 86 126 236 158 179 204 208 294 312 331 245 299 302 116 173 173 158 184 141 137 146 149 151 144 124 132 134 139 117 111 117 113 107 110 113 108 97 102 114 111 117 117 105 110 110 121 128 138 145 107 95 100 76 108 123 134 141 140 143 151 165 172 174 181 176 159 169 183 190 191 191 194 198 203 197 189 191 196 194 198 205 212
263 171 67 171 181 182 297 162 217 318 263 255 229 217 226 161 67 26 227 144 126 98 89 109 112 110 117 117 138 132 145 151 130 136 131 134 134 136 137 136 133 111 82 106 127 114 114 123 136 145 147 152 140 89 93 96 101 97 99 118 124 135 137 148 164 168 177 171 162 173 173 187 180 180 191 198 191 198 206 206 194 197 205 201 204 205
154 122 196 167 147 307 340 260 236 345 316 252 210 225 209 155 138 112 126 125 125 109 95 66 52 128 129 138 131 127 126 161 140 141 136 134 134 138 145 146 143 138 142 137 145 147 145 152 141 138 127 125 113 113 111 114 112 96 100 117 124 128 128 141 150 146 158 165 159 180 182 185 186 187 190 195 204 216 205 198 197 210 229 236 182 207
117 178 163 108 101 208 200 188 157 141 220 226 224 213 203 174 152 137 127 122 124 120 125 106 64 45 97 119 145 142 141 145 138 133 133 138 145 138 126 125 119 122 121 114 103 99 85 77 111 118 115 120 129 118 117 110 91 35 43 81 128 128 131 145 145 153 182 178 186 185 180 193 197 195 192 193 204 212 260 273 219 216 213 242 222 212
159 180 150 168 181 217 197 170 183 66 291 221 200 193 159 160 152 148 154 146 149 143 143 124 110 77 80 53 61 136 138 148 151 128 118 121 137 149 148 140 135 132 133 124 111 77 84 87 106 112 106 110 102 111 103 79 29 24 15 19 12 77 126 138 152 177 185 176 206 196 200 191 197 195 189 192 183 189 215 268 300 259 240 229 219 235